This is the latest recevied weather packets stored in our database for station/object KI5RAB. If no packets are shown the sender has not sent any weather packets the latest 10 day(s).
| Time | Temp. | Humidity | Pressure | Rain* | Wind** | Luminosity | Snow |
|---|---|---|---|---|---|---|---|
| 1778294313 | 23.33° C | 89% | 1013 hPa | 0 mm | - | 0 W/m² | - |
| 1778294010 | 23.33° C | 89% | 1013.1 hPa | 0 mm | - | 0 W/m² | - |
| 1778293707 | 22.78° C | 89% | 1012.6 hPa | 0 mm | - | 0 W/m² | - |
| 1778293404 | 23.33° C | 88% | 1012.7 hPa | 0 mm | - | 0 W/m² | - |
| 1778293100 | 23.33° C | 88% | 1012.6 hPa | 0 mm | - | 0 W/m² | - |
| 1778292798 | 23.33° C | 88% | 1012.7 hPa | 0 mm | - | 0 W/m² | - |
| 1778292495 | 23.33° C | 88% | 1012.5 hPa | 0 mm | - | 0 W/m² | - |
| 1778292193 | 23.33° C | 88% | 1012.5 hPa | 0 mm | - | 0 W/m² | - |
| 1778291890 | 23.33° C | 88% | 1012.5 hPa | 0 mm | - | 0 W/m² | - |
| 1778291589 | 23.33° C | 88% | 1012.3 hPa | 0 mm | - | 0 W/m² | - |
| 1778291285 | 23.89° C | 87% | 1012.3 hPa | 0 mm | - | 0 W/m² | - |
| 1778290982 | 23.89° C | 86% | 1012.1 hPa | 0 mm | - | 0 W/m² | - |
| 1778290679 | 23.89° C | 85% | 1012 hPa | 0 mm | - | 0 W/m² | - |
| 1778290374 | 23.89° C | 85% | 1012.1 hPa | 0 mm | - | 0 W/m² | - |
| 1778290071 | 23.89° C | 85% | 1012.1 hPa | 0 mm | - | 0 W/m² | - |
| 1778289768 | 23.89° C | 85% | 1012 hPa | 0 mm | - | 0 W/m² | - |
| 1778289465 | 23.89° C | 85% | 1012 hPa | 0 mm | - | 1 W/m² | - |
| 1778289163 | 23.89° C | 84% | 1012 hPa | 0 mm | - | 3 W/m² | - |
| 1778288860 | 23.89° C | 84% | 1012.2 hPa | 0 mm | - | 6 W/m² | - |
| 1778288557 | 23.89° C | 84% | 1011.8 hPa | 0 mm | - | 8 W/m² | - |
| 1778288255 | 24.44° C | 83% | 1011.7 hPa | 0 mm | - | 12 W/m² | - |
| 1778287952 | 24.44° C | 83% | 1011.8 hPa | 0 mm | - | 15 W/m² | - |
| 1778287651 | 24.44° C | 83% | 1011.8 hPa | 0 mm | - | 18 W/m² | - |
| 1778287349 | 24.44° C | 82% | 1011.8 hPa | 0 mm | - | 11 W/m² | - |
| 1778287047 | 24.44° C | 82% | 1011.8 hPa | 0 mm | - | 21 W/m² | - |
* Rain latest hour (hover to see other rain measurements)
** Current wind speed in m/s (hover to see current wind gust speed)